Weather in Polkhovskiy Maydan

Russia / Nizhny Novgorod Oblast'     54°51′05″N   42°38′39″E
temp.,
°C
wind,
m/s
gust,
m/s
humid.,
%
clouds,
%
prec.,
mm/h
press.,
hPa
HPBL,
m
17 may, mon
mon1700:00+15ene118753 0.5 101411
03:00+15e228964 0.8 101532
06:00+17e359053 0.0 1015137
09:00+22e45735 0.0 1015444
12:00+27sse455150 0.0 1015837
15:00+28sse474643 0.0 10141296
18:00+24ese476487 0.0 1014130
21:00+19ese4573100 0.0 101459
18 may, tue
tue1800:00+16ese397070 0.0 1015137
03:00+15ese387684 0.0 1014113
06:00+16ese4107849 0.0 1014186
09:00+23ese5105999 0.0 1014469
12:00+26ese610485 0.0 10131322
15:00+27ese69505 0.0 10121143
18:00+24ese511625 0.0 1012330
21:00+19e412745 0.0 1012198
19 may, wed
wed1900:00+18ese513689 0.0 1012276
03:00+17ese5146327 0.0 1012298
06:00+16ese514714 0.0 1012297
09:00+22ese6155980 0.0 1012592
12:00+27se610504 0.0 10121104
15:00+27ese710502 0.0 10121202
18:00+24ese611620 0.0 1011367
21:00+21e616720 0.0 1012521
20 may, thu
thu2000:00+18ese512672 0.0 1011335
03:00+17e615710 0.0 1011465
06:00+17ese51477100 0.0 1010538
09:00+21se711685 0.0 10101042
12:00+22se7106687 0.0 10101571
15:00+21s71069100 0.4 10111351
18:00+20s597052 0.2 1012725
21:00+16s497642 0.3 1013281
21 may, fri
fri2100:00+13sse37952 0.0 1013138
03:00+12sse379669 0.0 1014148
06:00+14sse369191 0.0 1014239
09:00+18s57694 0.1 10141028
12:00+20ssw6859100 0.7 10131606
15:00+19sw5868100 1.0 1013935
18:00+17ssw611815 0.8 1013872
21:00+14ssw4119474 1.9 1014330